Overview Statistics Trail Chart Weather Telemetry Raw packets
 

This is the latest recevied weather packets stored in our database for station/object JS2QVS-13. If no packets are shown the sender has not sent any weather packets the latest 10 day(s).

<< 1 2 3 4 5 6 >>
Time Temp. Humidity Pressure Rain* Wind** Luminosity Snow
1788549657 22.22° C 89% 1006 hPa 2.03 mm - - -
1788549057 22.22° C 89% 1006.1 hPa 2.03 mm - - -
1788548457 22.22° C 88% 1006.3 hPa 1.78 mm - - -
1788547857 22.22° C 88% 1006.5 hPa 1.52 mm - - -
1788547257 22.22° C 87% 1006.4 hPa 1.02 mm - - -
1788546656 22.78° C 87% 1006.4 hPa 0.76 mm - - -
1788546056 22.78° C 88% 1006.3 hPa 0.51 mm - - -
1788545456 22.78° C 88% 1006.2 hPa 0.25 mm - - -
1788544858 22.78° C 89% 1006.2 hPa 0.25 mm - - -
1788544258 22.22° C 90% 1006.2 hPa 0.25 mm - - -
1788543658 22.22° C 90% 1005.7 hPa 0.25 mm - - -
1788543058 22.22° C 90% 1005.5 hPa 0 mm - - -
1788542458 22.22° C 91% 1005.6 hPa 0 mm - - -
1788541857 22.22° C 91% 1005.2 hPa 0.25 mm - - -
1788541257 22.22° C 90% 1005.5 hPa 0.25 mm - - -
1788540657 22.22° C 89% 1005.7 hPa 0.25 mm - - -
1788540057 22.22° C 89% 1006.2 hPa 1.02 mm - - -
1788539457 22.22° C 90% 1006.5 hPa 1.27 mm - - -
1788538857 22.22° C 90% 1005.9 hPa 1.78 mm - - -
1788538256 21.67° C 90% 1005.8 hPa 1.52 mm - - -
1788537657 22.22° C 89% 1006 hPa 1.52 mm - - -
1788537057 22.22° C 89% 1006.5 hPa 0 mm - - -
1788536456 22.22° C 89% 1007.6 hPa 0 mm - - -
1788535856 22.22° C 89% 1006.9 hPa 0 mm - - -
1788535256 22.78° C 89% 1006.9 hPa 0 mm - - -

* Rain latest hour (hover to see other rain measurements)
** Current wind speed in m/s (hover to see current wind gust speed)